Location: St Andrew
(49.4460°N, 2.5750°W)
Time: 13:45:32
(UTC+00:00)

Daily predictions for brighter satellites

Satellite Brightness Start Highest point End
(mag) Time Altitude Azimuth Time Altitude Azimuth Time Altitude Azimuth
CZ-2C R/B 3.1 16:38:21 10° SE 16:43:00 37° ENE 16:47:44 10° N
Cosmos 1833 Rocket 3.0 16:38:10 10° NNW 16:43:36 45° NE 16:48:59 10° SE
PAYLOAD A 4.1 16:40:06 10° SE 16:44:54 53° ENE 16:49:54 10° N
CZ-4 R/B 1.9 16:43:19 10° SE 16:47:11 39° ENE 16:51:00 10° N
Cosmos 2218 Rocket 4.0 16:44:13 10° N 16:50:32 76° E 16:56:43 10° SSE
Cosmos 2082 Rocket 2.3 16:49:05 10° NNW 16:54:42 60° ENE 17:00:19 10° SE
SMAP 3.4 16:53:00 10° SE 16:57:23 43° ENE 17:01:49 10° N
MTI 3.9 16:55:39 10° NNE 16:58:58 86° WNW 17:02:16 10° SSW
Cosmos 1666 4.3 16:57:59 10° NNE 17:00:19 15° ENE 17:02:38 10° ESE
Cosmos 2181 Rocket 4.3 16:54:43 10° SSW 17:01:08 78° W 17:07:38 10° N
Cosmos 2263 Rocket 4.1 17:02:31 10° W 17:06:49 22° NW 17:11:11 10° N
CZ-3B DEB 2.4 17:05:57 10° SW 17:09:41 64° SE 17:18:30 12° ENE
Cosmos 1544 Rocket 4.2 17:06:05 10° NNW 17:10:31 62° W 17:14:55 10° S
SJ-12 3.9 17:10:21 10° SSE 17:14:25 65° ENE 17:18:33 10° N
Okean 1 3.4 17:11:57 10° S 17:15:56 59° E 17:19:58 10° NNE
AQUARIUS 4.1 17:11:58 10° SSE 17:16:25 64° ENE 17:20:53 10° N
Cosmos 1346 Rocket 3.1 17:13:35 10° SSE 17:17:15 42° E 17:20:57 10° NNE
Ariane Rocket 4.5 17:13:14 10° SSW 17:17:59 41° W 17:22:47 10° NNW
COSMO-SKYMED 1 4.0 17:17:25 13° ENE 17:19:33 18° E 17:22:35 10° SE
Timation 2 Rocket 4.3 17:12:58 10° NNW 17:19:49 87° WSW 17:26:44 10° SSE
Cosmos 1975 Rocket 4.4 17:16:27 10° SW 17:20:30 39° WNW 17:24:37 10° N
Cosmos 1500 3.1 17:18:21 10° N 17:22:13 80° E 17:26:05 10° SSE
Cosmos 921 Rocket 3.7 17:19:22 10° SSE 17:23:17 35° E 17:26:44 13° NE
ERBS 3.0 17:22:58 10° NW 17:26:11 36° NNE 17:28:08 19° E
Cosmos 1025 Rocket 4.2 17:23:07 10° SE 17:26:33 23° E 17:28:50 15° NE
Cosmos 1743 3.0 17:22:53 10° N 17:26:39 45° ENE 17:30:21 10° SSE
Tiangong 1 3.0 17:24:45 10° SW 17:27:09 21° S 17:29:32 10° ESE
BREEZE-M DEB (TANK) 1.7 17:25:18 10° WSW 17:27:25 59° SSE 17:28:49 21° E
Cosmos 1844 Rocket 3.6 17:23:27 10° SW 17:28:49 44° NW 17:34:14 10° NNE
CORIOLIS 4.1 17:29:30 10° SSE 17:34:55 84° ENE 17:40:19 10° NNW
Cosmos 1536 Rocket 3.8 17:32:41 10° SSW 17:37:09 77° W 17:41:40 10° N
NOSS 2-1 (E) 4.1 17:36:24 10° S 17:40:03 37° ESE 17:42:12 22° ENE
ISS -3.1 17:38:11 10° W 17:41:27 56° N 17:42:53 29° ENE
SPOT 3 Rocket 3.7 17:36:26 10° S 17:41:37 77° WSW 17:46:48 10° NNW
Nadezhda 3 Rocket 4.0 17:37:42 10° S 17:43:51 64° E 17:50:06 10° NNE
RESURS DK-1 4.2 17:42:21 10° N 17:44:19 15° NNE 17:44:19 15° NNE
Cosmos 2058 Rocket 3.9 17:42:42 10° N 17:46:33 27° ENE 17:50:21 10° SE
YAOGAN 1 2.8 17:42:52 10° S 17:47:11 72° WSW 17:51:32 10° NNW
Meteor 2-4 Rocket 4.1 17:43:34 10° SSE 17:48:27 38° E 17:52:33 14° NNE
Meteor 1-13 Rocket 4.2 17:46:23 10° S 17:52:05 69° E 17:57:57 10° NNE
Cosmos 1484 Rocket 2.6 17:48:32 10° SSE 17:52:12 59° ENE 17:55:53 10° N
USA 234 3.6 17:49:44 21° ENE 17:54:03 51° SE 18:00:23 10° SSW
Cosmos 1190 Rocket 3.9 17:49:52 10° NNW 17:55:06 63° ENE 18:00:16 10° SE
EP 1 4.3 17:56:31 10° SW 17:59:04 73° NW 17:59:33 53° NNE
Cosmos 1238 Rocket 4.5 17:56:45 10° SW 17:59:26 26° WNW 18:02:27 10° NNW
Intercosmos 25 3.0 17:57:59 10° NNW 18:01:11 75° W 18:04:33 10° S
METEOR-M 4.5 17:59:24 10° SE 18:04:23 41° ENE 18:09:23 10° N
SKYMED 2 3.7 18:06:01 29° NE 18:07:58 51° E 18:12:12 10° S
MSX 4.1 18:02:27 10° S 18:08:11 71° WSW 18:13:56 10° NNW
Thor Agena Rocket 3.8 18:04:05 10° NNE 18:09:19 72° WNW 18:14:33 10° SSW
Cosmos 2297 3.7 18:04:15 10° SSW 18:09:53 81° WNW 18:14:07 19° NNE
NOSS 3-4 (A) 4.0 18:04:06 10° NW 18:11:01 73° SW 18:18:22 10° SSE
NOSS 3-4 (C) 4.0 18:04:11 10° NW 18:11:07 73° SW 18:18:29 10° SSE
GEOS 3 Rocket 3.7 18:08:45 27° ESE 18:11:20 54° NE 18:16:20 10° NW
Okean 2 4.0 18:08:14 10° SSE 18:11:38 37° ESE 18:11:38 37° ESE
BREEZE M DEB (TANK) 3.2 18:07:23 10° SW 18:13:38 35° SSE 18:14:24 31° SE
IDEFIX/ARIANE 42P 3.8 18:09:56 10° SSW 18:14:50 42° W 18:19:46 10° NNW
Meteor 2-8 Rocket 4.5 18:10:52 10° SSE 18:16:45 54° E 18:22:39 10° NNE
Cosmos 2278 Rocket 3.3 18:12:12 10° WSW 18:17:32 41° NW 18:22:20 13° NNE
SL-8 R/B 3.6 18:13:17 10° W 18:18:04 80° S 18:19:36 43° E
Cosmos 1934 Rocket 3.9 18:13:35 10° N 18:19:50 82° E 18:26:09 10° S
ATLAS CENTAUR R/B 3.7 18:18:34 10° NNW 18:19:47 12° N 18:19:47 12° N
CZ-2C R/B 4.1 18:16:33 10° SSW 18:21:14 36° W 18:26:01 10° NNW
CZ-4 R/B 4.0 18:19:05 10° SSW 18:22:22 23° W 18:25:38 10° NW
BREEZE-M DEB (TANK) 3.2 18:16:58 10° W 18:23:27 84° S 18:23:59 62° ESE
Cosmos 1892 Rocket 3.8 18:21:53 10° S 18:25:33 47° ESE 18:25:33 47° ESE
Cosmos 1726 Rocket 3.4 18:22:41 10° N 18:27:11 83° E 18:31:39 10° SSE
Cosmos 1833 Rocket 4.3 18:22:19 10° NW 18:27:26 36° WSW 18:32:31 10° S
Okean 1-7 Rocket 4.3 18:31:13 10° SSW 18:35:36 52° WNW 18:39:26 13° N
Cosmos 1666 3.4 18:32:33 10° NNW 18:36:21 54° W 18:40:08 10° S
Cosmos 2082 Rocket 4.4 18:33:47 10° NW 18:38:25 26° WSW 18:43:03 10° SSW
Cosmos 2227 Rocket 4.4 18:41:41 10° N 18:42:14 11° N 18:42:14 11° N
Resurs 01 Rocket 4.0 18:47:46 13° N 18:47:46 13° N 18:48:13 10° N
Cosmos 407 Rocket 3.8 18:39:24 10° NNW 18:44:30 64° WSW 18:49:36 10° S
Spot 2 Rocket 4.2 18:47:45 39° NNE 18:47:45 39° NNE 18:51:09 10° N
Cosmos 1606 Rocket 4.3 18:42:37 10° NNW 18:47:01 54° W 18:51:22 10° S
Cosmos 2056 Rocket 3.5 18:47:07 10° SSW 18:52:29 80° WNW 18:53:55 49° NNE
COSMO-SKYMED 1 3.2 18:54:37 37° NNW 18:56:03 54° WNW 19:00:16 10° SSW
Cosmos 676 Rocket 4.2 18:51:46 10° NNW 18:56:58 69° WSW 19:00:49 18° S
Cosmos 1153 Rocket 4.3 18:54:31 10° N 19:00:44 82° E 19:06:52 10° SSE
Cosmos 1954 Rocket 4.0 18:55:36 10° NNW 19:00:48 79° WSW 19:01:57 55° S
Tiangong 1 4.0 19:00:29 10° WSW 19:01:13 14° SW 19:01:13 14° SW
ERBS 4.4 18:59:43 10° WNW 19:01:33 27° W 19:01:33 27° W
FengYun 1-2 T 4.1 19:03:27 77° ENE 19:03:28 77° ENE 19:09:09 10° NNW
Cosmos 1025 Rocket 4.2 18:59:45 10° SW 19:03:55 41° WNW 19:05:47 27° NNW
Cosmos 1624 Rocket 4.4 19:00:04 10° SW 19:05:12 60° WNW 19:06:32 45° N
Cosmos 1605 Rocket 4.3 19:00:38 10° NNW 19:06:53 67° W 19:13:00 10° S
Cosmos 1140 Rocket 3.8 19:07:20 10° NNW 19:11:30 58° NNW 19:11:30 58° NNW
BREEZE-M DEB (TANK) 3.6 19:00:01 10° W 19:16:19 72° N 19:16:51 68° NE
ISS -0.3 19:14:46 10° WNW 19:15:33 16° WNW 19:15:33 16° WNW
Cosmos 2369 Rocket 3.3 19:14:14 10° SSW 19:17:16 33° S 19:17:16 33° S
USA 234 3.3 19:37:05 69° NNW 19:37:15 69° NNW 19:43:45 10° WSW
CZ-3B DEB 3.6 19:37:51 10° W 19:44:06 64° N 19:46:08 56° NE
BREEZE-M R/B 4.5 19:37:22 10° W 19:42:57 46° W 19:42:57 46° W
